Previsão horária em Celinnoe

Hoje, 30 Julho, Sexta-feira

Tempo Temperatura Precipitação Vento Pressão Humidade
00:00 +15°C° 0 mm 1 m/s 734 mmHg 71%
01:00 +15°C° 0 mm 1 m/s 734 mmHg 71%
02:00 +15°C° 0 mm 1 m/s 734 mmHg 72%
03:00 +14°C° 0 mm 1 m/s 734 mmHg 72%
04:00 +15°C° 0 mm 1 m/s 734 mmHg 72%
05:00 +15°C° 0 mm 1 m/s 735 mmHg 72%
06:00 +16°C° 0 mm 1 m/s 735 mmHg 71%
07:00 +18°C° 0 mm 1 m/s 735 mmHg 66%
08:00 +20°C° 0 mm 1 m/s 735 mmHg 61%
09:00 +21°C° 0 mm 1 m/s 735 mmHg 56%
10:00 +21°C° 0 mm 2 m/s 735 mmHg 52%
11:00 +24°C° 0 mm 2 m/s 735 mmHg 49%
12:00 +25°C° 0 mm 2 m/s 735 mmHg 45%
13:00 +25°C° 0 mm 2 m/s 735 mmHg 44%
14:00 +26°C° 0 mm 2 m/s 734 mmHg 43%
15:00 +26°C° 0 mm 2 m/s 734 mmHg 42%
16:00 +25°C° 0 mm 1 m/s 734 mmHg 47%
17:00 +25°C° 0 mm 1 m/s 735 mmHg 51%
18:00 +24°C° 0 mm 1 m/s 735 mmHg 55%
19:00 +23°C° 0 mm 1 m/s 735 mmHg 56%
20:00 +22°C° 0 mm 1 m/s 736 mmHg 57%
21:00 +20°C° 0 mm 2 m/s 736 mmHg 58%
22:00 +19°C° 0.3 mm 2 m/s 737 mmHg 67%
23:00 +18°C° 0.3 mm 2 m/s 737 mmHg 76%

Amanhã, 31 Julho, Sábado

Tempo Temperatura Precipitação Vento Pressão Humidade
00:00 +17°C° 0.3 mm 3 m/s 738 mmHg 84%
01:00 +17°C° 0 mm 2 m/s 738 mmHg 85%
02:00 +17°C° 0 mm 2 m/s 738 mmHg 86%
03:00 +17°C° 0 mm 2 m/s 738 mmHg 86%
04:00 +17°C° 0 mm 2 m/s 739 mmHg 86%
05:00 +17°C° 0 mm 2 m/s 739 mmHg 85%
06:00 +18°C° 0 mm 1 m/s 740 mmHg 85%
07:00 +18°C° 0 mm 2 m/s 740 mmHg 78%
08:00 +19°C° 0 mm 3 m/s 740 mmHg 72%
09:00 +20°C° 0 mm 3 m/s 740 mmHg 66%
10:00 +21°C° 0 mm 3 m/s 740 mmHg 63%
11:00 +22°C° 0 mm 3 m/s 740 mmHg 60%
12:00 +22°C° 0 mm 4 m/s 739 mmHg 56%
13:00 +24°C° 0 mm 3 m/s 739 mmHg 55%
14:00 +24°C° 0 mm 3 m/s 739 mmHg 55%
15:00 +24°C° 0 mm 3 m/s 739 mmHg 54%
16:00 +24°C° 0 mm 3 m/s 739 mmHg 56%
17:00 +23°C° 0 mm 2 m/s 739 mmHg 58%
18:00 +23°C° 0 mm 2 m/s 738 mmHg 60%
19:00 +20°C° 0 mm 2 m/s 738 mmHg 67%
20:00 +20°C° 0 mm 1 m/s 739 mmHg 74%
21:00 +18°C° 0 mm 1 m/s 739 mmHg 81%
22:00 +16°C° 0 mm 1 m/s 738 mmHg 83%
23:00 +16°C° 0 mm 1 m/s 738 mmHg 85%

Depois de amanhã, 1 Agosto, Domingo

Tempo Temperatura Precipitação Vento Pressão Humidade
00:00 +15°C° 0 mm 1 m/s 738 mmHg 87%
01:00 +15°C° 0 mm 1 m/s 738 mmHg 88%
02:00 +14°C° 0 mm 1 m/s 738 mmHg 89%
03:00 +14°C° 0 mm 1 m/s 738 mmHg 90%
04:00 +15°C° 0 mm 1 m/s 738 mmHg 87%
05:00 +15°C° 0 mm 1 m/s 738 mmHg 85%
06:00 +16°C° 0 mm 1 m/s 738 mmHg 82%
07:00 +19°C° 0 mm 1 m/s 738 mmHg 75%
08:00 +20°C° 0 mm 1 m/s 737 mmHg 69%
09:00 +22°C° 0 mm 1 m/s 737 mmHg 62%
10:00 +23°C° 0 mm 1 m/s 737 mmHg 58%
11:00 +24°C° 0 mm 1 m/s 736 mmHg 54%
12:00 +26°C° 0 mm 1 m/s 736 mmHg 50%
13:00 +26°C° 0 mm 1 m/s 736 mmHg 47%
14:00 +27°C° 0 mm 1 m/s 735 mmHg 45%
15:00 +27°C° 0 mm 1 m/s 735 mmHg 43%
16:00 +25°C° 0.3 mm 2 m/s 735 mmHg 54%
17:00 +22°C° 0.3 mm 3 m/s 735 mmHg 64%
18:00 +20°C° 0.3 mm 3 m/s 735 mmHg 75%
19:00 +19°C° 0.1 mm 2 m/s 735 mmHg 76%
20:00 +20°C° 0.1 mm 1 m/s 735 mmHg 77%
21:00 +17°C° 0.1 mm 0 m/s 735 mmHg 78%
22:00 +17°C° 0.3 mm 0 m/s 735 mmHg 80%
23:00 +16°C° 0.3 mm 0 m/s 735 mmHg 82%

2 Agosto, Segunda-feira

Tempo Temperatura Precipitação Vento Pressão Humidade
00:00 +16°C° 0.3 mm 0 m/s 735 mmHg 84%
01:00 +15°C° 0.3 mm 0 m/s 735 mmHg 86%
02:00 +15°C° 0.3 mm 0 m/s 734 mmHg 87%
03:00 +14°C° 0.3 mm 0 m/s 734 mmHg 89%
04:00 +15°C° 0.1 mm 0 m/s 734 mmHg 87%
05:00 +15°C° 0.1 mm 0 m/s 735 mmHg 85%
06:00 +16°C° 0.1 mm 0 m/s 735 mmHg 84%
07:00 +19°C° 0 mm 1 m/s 735 mmHg 78%
08:00 +21°C° 0 mm 1 m/s 735 mmHg 73%
09:00 +22°C° 0 mm 1 m/s 734 mmHg 67%
10:00 +23°C° 0 mm 1 m/s 734 mmHg 61%
11:00 +25°C° 0 mm 1 m/s 734 mmHg 55%
12:00 +26°C° 0 mm 1 m/s 734 mmHg 48%
13:00 +24°C° 2.1 mm 2 m/s 734 mmHg 59%
14:00 +20°C° 2.1 mm 3 m/s 734 mmHg 70%
15:00 +17°C° 2.1 mm 4 m/s 734 mmHg 81%
16:00 +17°C° 1 mm 3 m/s 734 mmHg 83%
17:00 +17°C° 1 mm 3 m/s 734 mmHg 84%
18:00 +16°C° 1 mm 2 m/s 734 mmHg 86%
19:00 +16°C° 0 mm 1 m/s 734 mmHg 87%
20:00 +15°C° 0 mm 1 m/s 734 mmHg 87%
21:00 +15°C° 0 mm 1 m/s 734 mmHg 87%
22:00 +14°C° 0 mm 1 m/s 733 mmHg 88%
23:00 +14°C° 0 mm 1 m/s 733 mmHg 88%

3 Agosto, Terça-feira

Tempo Temperatura Precipitação Vento Pressão Humidade
00:00 +14°C° 0 mm 1 m/s 733 mmHg 88%
01:00 +13°C° 0 mm 1 m/s 733 mmHg 88%
02:00 +13°C° 0 mm 1 m/s 733 mmHg 88%
03:00 +13°C° 0 mm 1 m/s 733 mmHg 88%
04:00 +14°C° 0 mm 1 m/s 733 mmHg 86%
05:00 +14°C° 0 mm 1 m/s 733 mmHg 84%
06:00 +14°C° 0 mm 0 m/s 733 mmHg 83%
07:00 +18°C° 0 mm 1 m/s 733 mmHg 77%
08:00 +19°C° 0 mm 1 m/s 733 mmHg 71%
09:00 +21°C° 0 mm 1 m/s 733 mmHg 66%
10:00 +21°C° 0 mm 2 m/s 733 mmHg 62%
11:00 +23°C° 0 mm 2 m/s 733 mmHg 57%
12:00 +25°C° 0 mm 3 m/s 733 mmHg 53%
13:00 +25°C° 0 mm 4 m/s 733 mmHg 55%
14:00 +25°C° 0 mm 5 m/s 733 mmHg 57%
15:00 +24°C° 0 mm 6 m/s 733 mmHg 59%
16:00 +23°C° 0 mm 6 m/s 733 mmHg 63%
17:00 +22°C° 0 mm 5 m/s 733 mmHg 68%
18:00 +21°C° 0 mm 4 m/s 733 mmHg 72%
19:00 +19°C° 0 mm 3 m/s 733 mmHg 78%
20:00 +18°C° 0 mm 2 m/s 733 mmHg 84%
21:00 +16°C° 0 mm 1 m/s 733 mmHg 90%
22:00 +16°C° 0 mm 1 m/s 733 mmHg 91%
23:00 +15°C° 0 mm 1 m/s 732 mmHg 92%

4 Agosto, Quarta-feira

Tempo Temperatura Precipitação Vento Pressão Humidade
00:00 +15°C° 0 mm 1 m/s 732 mmHg 93%
01:00 +15°C° 0 mm 1 m/s 732 mmHg 93%
02:00 +15°C° 0 mm 1 m/s 733 mmHg 93%
03:00 +14°C° 0 mm 1 m/s 733 mmHg 93%
04:00 +14°C° 0 mm 0 m/s 733 mmHg 91%
05:00 +15°C° 0 mm 0 m/s 733 mmHg 89%
06:00 +15°C° 0 mm 0 m/s 733 mmHg 87%
07:00 +19°C° 0 mm 1 m/s 733 mmHg 82%
08:00 +21°C° 0 mm 1 m/s 733 mmHg 76%
09:00 +22°C° 0 mm 1 m/s 733 mmHg 70%
10:00 +23°C° 0 mm 1 m/s 733 mmHg 66%
11:00 +25°C° 0 mm 2 m/s 733 mmHg 61%
12:00 +26°C° 0 mm 2 m/s 733 mmHg 56%
13:00 +27°C° 0.1 mm 2 m/s 732 mmHg 53%
14:00 +27°C° 0.1 mm 1 m/s 732 mmHg 50%
15:00 +28°C° 0.1 mm 1 m/s 732 mmHg 46%
16:00 +27°C° 0 mm 1 m/s 732 mmHg 51%
17:00 +26°C° 0 mm 1 m/s 732 mmHg 56%
18:00 +26°C° 0 mm 2 m/s 732 mmHg 61%
19:00 +24°C° 0.5 mm 1 m/s 732 mmHg 67%
20:00 +22°C° 0.5 mm 1 m/s 732 mmHg 73%
21:00 +21°C° 0.5 mm 1 m/s 733 mmHg 79%
22:00 +20°C° 0.3 mm 1 m/s 733 mmHg 81%
23:00 +20°C° 0.3 mm 1 m/s 732 mmHg 83%
Mostrar mais

Necessitamos do seu Consentimento

A Meteoprog e os seus Fornecedores de Serviços podem armazenar e aceder a dados pessoais como cookies, identificadores do dispositivo ou outras tecnologias semelhantes existentes no seu dispositivo e processar estes dados para personalizar conteúdos e anúncios, assim como funcionalidades nas redes sociais e análise de tráfego.

  • Armazenar e/ou aceder a informações no seu dispositivo

    Os cookies, identificadores do dispositivo ou outras informações podem ser armazenados ou acedidos no seu dispositivo, para os fins acima indicados.

  • Anúncios e conteúdos personalizados, medição de anúncios e conteúdos, dados sobre o público-alvo e desenvolvimento de produtos

    Os anúncios e os conteúdos podem ser personalizados com base num perfil. Podem ser adicionados dados adicionais para uma maior personalização dos anúncios e dos conteúdos. A eficácia dos anúncios e dos conteúdos pode ser medida. Podem ser obtidas informações sobre o público que visualizou os anúncios e os conteúdos. Estes dados podem ser usados para desenvolver ou melhorar sistemas, softwares ou a experiência do utilizador.

Ao clicar em "Eu concordo”, permitirá o uso de cookies, identificadores do dispositivo e web beacons mencionados ou outras tecnologias semelhantes. As configurações do navegador do seu dispositivo podem ser alteradas.

Para certos fins, podem ser invocados interesses legítimos ao invés de consentimento. Pode ler mais informação sobre este assunto na nossa Política de Privacidade e Cookies.